Time,TemperatureF,DewpointF,PressureIn,WindDirection,WindDirectionDegrees,WindSpeedMPH,WindSpeedGustMPH,Humidity,HourlyPrecipIn,Conditions,Clouds,dailyrainin,SoftwareType,DateUTC
2013-02-27 00:01:00,32.2,31.2,29.29,ENE,59,0.0,0.0,96,0.00,,,0.51,VWS V14.01,2013-02-27 05:01:00,
2013-02-27 00:06:00,32.2,31.2,29.29,ENE,59,0.0,0.0,96,0.00,,,0.00,VWS V14.01,2013-02-27 05:06:00,
2013-02-27 00:12:00,32.2,31.2,29.29,ENE,59,0.0,0.0,96,0.00,,,0.00,VWS V14.01,2013-02-27 05:12:00,
2013-02-27 00:21:00,32.2,31.2,29.29,ENE,59,0.0,0.0,96,0.00,,,0.00,VWS V14.01,2013-02-27 05:21:00,
2013-02-27 00:26:00,32.2,31.2,29.29,ENE,59,0.0,0.0,96,0.00,,,0.00,VWS V14.01,2013-02-27 05:26:00,
2013-02-27 00:36:00,32.2,31.2,29.29,ENE,59,0.0,0.0,96,0.00,,,0.00,VWS V14.01,2013-02-27 05:36:00,
2013-02-27 00:41:00,32.2,31.2,29.29,ENE,59,0.0,0.0,96,0.00,,,0.00,VWS V14.01,2013-02-27 05:41:00,
2013-02-27 00:46:00,32.2,31.2,29.29,ENE,59,0.0,0.0,96,0.00,,,0.00,VWS V14.01,2013-02-27 05:46:00,
2013-02-27 00:51:00,32.2,31.2,29.29,ENE,59,0.0,0.0,96,0.00,,,0.00,VWS V14.01,2013-02-27 05:51:00,
2013-02-27 00:56:00,32.2,31.2,29.29,ENE,59,0.0,0.0,96,0.00,,,0.00,VWS V14.01,2013-02-27 05:56:00,
2013-02-27 01:05:00,32.2,31.2,29.29,ENE,59,0.0,0.0,96,0.00,,,0.00,VWS V14.01,2013-02-27 06:05:00,
2013-02-27 01:10:00,32.2,31.5,29.29,ENE,59,0.0,1.0,97,0.00,,,0.00,VWS V14.01,2013-02-27 06:10:00,
2013-02-27 01:16:00,32.2,31.5,29.30,ENE,59,0.0,1.0,97,0.00,,,0.00,VWS V14.01,2013-02-27 06:16:00,
2013-02-27 01:21:00,32.4,31.6,29.30,ENE,59,0.0,0.0,97,0.00,,,0.00,VWS V14.01,2013-02-27 06:21:00,
2013-02-27 01:26:00,32.4,31.6,29.30,ENE,59,0.0,1.0,97,0.00,,,0.00,VWS V14.01,2013-02-27 06:26:00,
2013-02-27 01:31:00,32.2,31.5,29.30,ENE,59,0.0,0.0,97,0.00,,,0.00,VWS V14.01,2013-02-27 06:31:00,
2013-02-27 01:36:00,32.2,31.5,29.30,ENE,59,0.0,1.0,97,0.00,,,0.00,VWS V14.01,2013-02-27 06:36:00,
2013-02-27 01:46:00,32.2,31.5,29.30,ENE,59,0.0,1.0,97,0.00,,,0.00,VWS V14.01,2013-02-27 06:46:00,
2013-02-27 01:51:00,32.2,31.5,29.30,ENE,72,1.0,2.0,97,0.00,,,0.00,VWS V14.01,2013-02-27 06:51:00,
2013-02-27 01:56:00,32.2,31.5,29.30,ESE,107,2.0,2.0,97,0.00,,,0.00,VWS V14.01,2013-02-27 06:56:00,
2013-02-27 02:01:00,32.2,31.5,29.31,SE,124,2.0,3.0,97,0.00,,,0.00,VWS V14.01,2013-02-27 07:01:00,
2013-02-27 02:11:00,32.2,31.5,29.31,SSE,147,3.0,3.0,97,0.00,,,0.00,VWS V14.01,2013-02-27 07:11:00,
2013-02-27 02:16:00,32.2,31.5,29.31,SSE,147,1.0,3.0,97,0.00,,,0.00,VWS V14.01,2013-02-27 07:16:00,
2013-02-27 02:21:00,32.2,31.5,29.31,SSE,150,2.0,3.0,97,0.00,,,0.00,VWS V14.01,2013-02-27 07:21:00,
2013-02-27 02:31:00,32.2,31.5,29.31,SSE,154,0.0,1.0,97,0.00,,,0.00,VWS V14.01,2013-02-27 07:31:00,
2013-02-27 02:36:00,32.2,31.7,29.31,SSE,154,2.0,2.0,98,0.00,,,0.00,VWS V14.01,2013-02-27 07:36:00,
2013-02-27 02:41:00,32.2,31.7,29.31,SSE,154,1.0,3.0,98,0.00,,,0.00,VWS V14.01,2013-02-27 07:41:00,
2013-02-27 02:46:00,32.2,31.7,29.31,SSE,154,2.0,2.0,98,0.00,,,0.00,VWS V14.01,2013-02-27 07:46:00,
2013-02-27 02:51:00,32.2,31.7,29.31,SSE,154,1.0,3.0,98,0.00,,,0.00,VWS V14.01,2013-02-27 07:51:00,
2013-02-27 03:01:00,32.2,31.7,29.30,SSE,161,1.0,5.0,98,0.00,,,0.00,VWS V14.01,2013-02-27 08:01:00,
2013-02-27 03:10:00,32.2,32.0,29.30,SSE,161,2.0,3.0,99,0.00,,,0.00,VWS V14.01,2013-02-27 08:10:00,
2013-02-27 03:16:00,32.2,32.0,29.30,SSE,161,2.0,3.0,99,0.00,,,0.00,VWS V14.01,2013-02-27 08:16:00,
2013-02-27 03:25:00,32.2,32.2,29.30,South,191,1.0,3.0,100,0.00,,,0.00,VWS V14.01,2013-02-27 08:25:00,
2013-02-27 03:31:00,32.2,32.2,29.30,SSW,193,1.0,5.0,100,0.00,,,0.00,VWS V14.01,2013-02-27 08:31:00,
2013-02-27 03:36:00,32.2,32.2,29.30,SSW,193,2.0,4.0,100,0.00,,,0.00,VWS V14.01,2013-02-27 08:36:00,
2013-02-27 03:41:00,32.2,32.2,29.30,SSW,193,2.0,5.0,100,0.00,,,0.00,VWS V14.01,2013-02-27 08:41:00,
2013-02-27 03:46:00,32.2,32.2,29.30,SSW,195,2.0,5.0,100,0.00,,,0.00,VWS V14.01,2013-02-27 08:46:00,
2013-02-27 03:51:00,32.2,32.2,29.30,SSW,198,0.0,5.0,100,0.00,,,0.00,VWS V14.01,2013-02-27 08:51:00,
2013-02-27 03:56:00,32.2,32.2,29.30,SSW,198,1.0,3.0,100,0.00,,,0.00,VWS V14.01,2013-02-27 08:56:00,
2013-02-27 04:05:00,32.2,32.2,29.30,SSW,198,2.0,4.0,100,0.00,,,0.00,VWS V14.01,2013-02-27 09:05:00,
2013-02-27 04:10:00,32.2,32.2,29.30,SSW,198,1.0,2.0,100,0.00,,,0.00,VWS V14.01,2013-02-27 09:10:00,
2013-02-27 04:15:00,32.2,32.2,29.30,SSW,198,3.0,5.0,100,0.00,,,0.00,VWS V14.01,2013-02-27 09:15:00,
2013-02-27 04:21:00,32.2,32.2,29.30,SSW,198,1.0,3.0,100,0.00,,,0.00,VWS V14.01,2013-02-27 09:21:00,
2013-02-27 04:31:00,32.1,32.1,29.30,SSW,198,2.0,5.0,100,0.00,,,0.00,VWS V14.01,2013-02-27 09:31:00,
2013-02-27 04:36:00,32.1,32.1,29.30,SSW,198,2.0,3.0,100,0.00,,,0.00,VWS V14.01,2013-02-27 09:36:00,
2013-02-27 04:41:00,32.2,32.2,29.30,SSW,200,0.0,5.0,100,0.00,,,0.00,VWS V14.01,2013-02-27 09:41:00,
2013-02-27 04:50:00,32.1,32.1,29.31,SSW,200,4.0,4.0,100,0.00,,,0.00,VWS V14.01,2013-02-27 09:50:00,
2013-02-27 04:56:00,32.1,32.1,29.31,SSW,200,0.0,5.0,100,0.00,,,0.00,VWS V14.01,2013-02-27 09:56:00,
2013-02-27 05:01:00,32.1,32.1,29.32,SSW,200,3.0,6.0,100,0.00,,,0.00,VWS V14.01,2013-02-27 10:01:00,
2013-02-27 05:11:00,32.1,32.1,29.32,SSW,202,2.0,6.0,100,0.00,,,0.00,VWS V14.01,2013-02-27 10:11:00,
2013-02-27 05:16:00,32.1,32.1,29.32,SSW,202,3.0,6.0,100,0.00,,,0.00,VWS V14.01,2013-02-27 10:16:00,
2013-02-27 05:20:00,32.1,32.1,29.32,SSW,202,2.0,5.0,100,0.00,,,0.00,VWS V14.01,2013-02-27 10:20:00,
2013-02-27 05:31:00,32.1,32.1,29.32,SSW,206,3.0,5.0,100,0.00,,,0.00,VWS V14.01,2013-02-27 10:31:00,
2013-02-27 05:36:00,32.1,32.1,29.32,SSW,208,4.0,7.0,100,0.01,,,0.01,VWS V14.01,2013-02-27 10:36:00,
2013-02-27 05:46:00,32.1,32.1,29.33,SSW,208,3.0,6.0,100,0.01,,,0.01,VWS V14.01,2013-02-27 10:46:00,
2013-02-27 05:51:00,32.1,32.1,29.33,SW,215,8.0,8.0,100,0.01,,,0.01,VWS V14.01,2013-02-27 10:51:00,
2013-02-27 06:00:00,32.1,32.1,29.33,WSW,239,5.0,7.0,100,0.01,,,0.01,VWS V14.01,2013-02-27 11:00:00,
2013-02-27 06:06:00,32.1,32.1,29.33,SW,226,4.0,6.0,100,0.01,,,0.01,VWS V14.01,2013-02-27 11:06:00,
2013-02-27 06:11:00,32.1,32.1,29.33,SW,216,5.0,8.0,100,0.01,,,0.01,VWS V14.01,2013-02-27 11:11:00,
2013-02-27 06:16:00,32.1,32.1,29.35,SW,219,4.0,7.0,100,0.01,,,0.01,VWS V14.01,2013-02-27 11:16:00,
2013-02-27 06:21:00,32.1,32.1,29.35,SW,229,5.0,8.0,100,0.01,,,0.01,VWS V14.01,2013-02-27 11:21:00,
2013-02-27 06:26:00,32.1,32.1,29.35,SW,219,5.0,8.0,100,0.01,,,0.01,VWS V14.01,2013-02-27 11:26:00,
2013-02-27 06:31:00,32.1,32.1,29.35,SW,223,3.0,8.0,100,0.01,,,0.01,VWS V14.01,2013-02-27 11:31:00,
2013-02-27 06:36:00,32.1,32.1,29.35,SW,227,4.0,7.0,100,0.01,,,0.01,VWS V14.01,2013-02-27 11:36:00,
2013-02-27 06:41:00,32.1,32.1,29.35,SW,226,7.0,7.0,100,0.00,,,0.01,VWS V14.01,2013-02-27 11:41:00,
2013-02-27 06:46:00,32.1,32.1,29.35,SW,226,6.0,8.0,100,0.00,,,0.01,VWS V14.01,2013-02-27 11:46:00,
2013-02-27 06:51:00,32.1,32.1,29.35,SW,232,4.0,10.0,100,0.00,,,0.01,VWS V14.01,2013-02-27 11:51:00,
2013-02-27 07:01:00,32.1,32.1,29.35,SSW,209,7.0,11.0,100,0.00,,,0.01,VWS V14.01,2013-02-27 12:01:00,
2013-02-27 07:06:00,32.1,32.1,29.35,SW,224,5.0,8.0,100,0.00,,,0.01,VWS V14.01,2013-02-27 12:06:00,
2013-02-27 07:11:00,32.1,32.1,29.35,SW,219,6.0,8.0,100,0.00,,,0.01,VWS V14.01,2013-02-27 12:11:00,
2013-02-27 07:16:00,32.1,32.1,29.35,SSW,202,4.0,7.0,100,0.00,,,0.01,VWS V14.01,2013-02-27 12:16:00,
2013-02-27 07:21:00,32.1,32.1,29.35,SW,226,7.0,7.0,100,0.00,,,0.01,VWS V14.01,2013-02-27 12:21:00,
2013-02-27 07:31:00,32.1,32.1,29.35,SSW,210,4.0,8.0,100,0.00,,,0.01,VWS V14.01,2013-02-27 12:31:00,
2013-02-27 07:36:00,32.1,32.1,29.35,SSW,205,6.0,11.0,100,0.00,,,0.01,VWS V14.01,2013-02-27 12:36:00,
2013-02-27 07:46:00,32.1,32.1,29.36,SW,233,5.0,9.0,100,0.00,,,0.01,VWS V14.01,2013-02-27 12:46:00,
2013-02-27 07:51:00,32.2,32.2,29.36,SW,227,3.0,10.0,100,0.00,,,0.01,VWS V14.01,2013-02-27 12:51:00,
2013-02-27 07:56:00,32.2,32.2,29.36,SW,236,10.0,11.0,100,0.00,,,0.01,VWS V14.01,2013-02-27 12:56:00,
2013-02-27 08:01:00,32.2,32.2,29.37,SW,227,7.0,12.0,100,0.00,,,0.01,VWS V14.01,2013-02-27 13:01:00,
2013-02-27 08:10:00,32.2,32.2,29.37,SSW,209,8.0,10.0,100,0.00,,,0.01,VWS V14.01,2013-02-27 13:10:00,
2013-02-27 08:15:00,32.2,32.2,29.37,SW,223,6.0,8.0,100,0.00,,,0.01,VWS V14.01,2013-02-27 13:15:00,
2013-02-27 08:21:00,32.2,32.2,29.37,SSW,212,5.0,10.0,100,0.00,,,0.01,VWS V14.01,2013-02-27 13:21:00,
2013-02-27 08:26:00,32.2,32.2,29.37,SW,227,7.0,11.0,100,0.00,,,0.01,VWS V14.01,2013-02-27 13:26:00,
2013-02-27 08:31:00,32.2,32.2,29.38,SSW,205,2.0,10.0,100,0.00,,,0.01,VWS V14.01,2013-02-27 13:31:00,
2013-02-27 08:36:00,32.2,32.2,29.38,SSW,200,5.0,10.0,100,0.00,,,0.01,VWS V14.01,2013-02-27 13:36:00,
2013-02-27 08:41:00,32.2,32.2,29.38,SW,234,4.0,11.0,100,0.00,,,0.01,VWS V14.01,2013-02-27 13:41:00,
2013-02-27 08:46:00,32.2,32.2,29.39,SSW,198,7.0,10.0,100,0.00,,,0.01,VWS V14.01,2013-02-27 13:46:00,
2013-02-27 08:51:00,32.2,32.2,29.39,SW,220,5.0,10.0,100,0.00,,,0.01,VWS V14.01,2013-02-27 13:51:00,
2013-02-27 08:56:00,32.2,32.2,29.39,WSW,246,6.0,10.0,100,0.00,,,0.01,VWS V14.01,2013-02-27 13:56:00,
2013-02-27 09:01:00,32.2,32.2,29.39,SSW,213,6.0,8.0,100,0.00,,,0.01,VWS V14.01,2013-02-27 14:01:00,
2013-02-27 09:11:00,32.2,32.2,29.39,SW,229,7.0,11.0,100,0.00,,,0.01,VWS V14.01,2013-02-27 14:11:00,
2013-02-27 09:21:00,32.2,32.2,29.40,WSW,243,5.0,11.0,100,0.00,,,0.01,VWS V14.01,2013-02-27 14:21:00,
2013-02-27 09:26:00,32.2,32.2,29.40,SW,227,6.0,12.0,100,0.00,,,0.01,VWS V14.01,2013-02-27 14:26:00,
2013-02-27 09:31:00,32.2,32.2,29.40,SW,222,3.0,11.0,100,0.00,,,0.01,VWS V14.01,2013-02-27 14:31:00,
2013-02-27 09:36:00,32.2,32.2,29.40,SW,220,10.0,10.0,100,0.00,,,0.01,VWS V14.01,2013-02-27 14:36:00,
2013-02-27 09:41:00,32.2,32.2,29.40,SSW,203,7.0,11.0,100,0.00,,,0.01,VWS V14.01,2013-02-27 14:41:00,
2013-02-27 09:46:00,32.4,32.4,29.40,SSW,208,8.0,11.0,100,0.00,,,0.01,VWS V14.01,2013-02-27 14:46:00,
2013-02-27 09:51:00,32.4,32.4,29.40,SW,227,6.0,13.0,100,0.00,,,0.01,VWS V14.01,2013-02-27 14:51:00,
2013-02-27 09:56:00,32.4,32.4,29.40,SW,215,6.0,12.0,100,0.01,,,0.02,VWS V14.01,2013-02-27 14:56:00,
2013-02-27 10:01:00,32.4,32.4,29.40,SW,217,11.0,12.0,100,0.01,,,0.02,VWS V14.01,2013-02-27 15:01:00,
2013-02-27 10:06:00,32.4,32.4,29.40,SW,216,13.0,16.0,100,0.01,,,0.02,VWS V14.01,2013-02-27 15:06:00,
2013-02-27 10:11:00,32.4,32.4,29.40,SW,216,9.0,16.0,100,0.01,,,0.02,VWS V14.01,2013-02-27 15:11:00,
2013-02-27 10:21:00,32.4,32.4,29.40,SW,229,8.0,14.0,100,0.02,,,0.03,VWS V14.01,2013-02-27 15:21:00,
2013-02-27 10:25:00,32.4,32.4,29.40,SW,222,8.0,18.0,100,0.02,,,0.03,VWS V14.01,2013-02-27 15:25:00,
2013-02-27 10:31:00,32.5,32.5,29.40,West,265,5.0,14.0,100,0.03,,,0.04,VWS V14.01,2013-02-27 15:31:00,
2013-02-27 10:36:00,32.5,32.5,29.40,SW,219,6.0,17.0,100,0.03,,,0.04,VWS V14.01,2013-02-27 15:36:00,
2013-02-27 10:41:00,32.5,32.5,29.40,SW,222,11.0,14.0,100,0.03,,,0.04,VWS V14.01,2013-02-27 15:41:00,
2013-02-27 10:46:00,32.5,32.5,29.40,SW,217,13.0,17.0,100,0.04,,,0.05,VWS V14.01,2013-02-27 15:46:00,
2013-02-27 10:51:00,32.5,32.5,29.40,SW,220,6.0,17.0,100,0.04,,,0.05,VWS V14.01,2013-02-27 15:51:00,
2013-02-27 10:56:00,32.5,32.5,29.40,SW,233,17.0,17.0,100,0.04,,,0.05,VWS V14.01,2013-02-27 15:56:00,
2013-02-27 11:01:00,32.5,32.5,29.40,SW,216,11.0,17.0,100,0.04,,,0.06,VWS V14.01,2013-02-27 16:01:00,
2013-02-27 11:11:00,32.5,32.5,29.40,South,191,11.0,20.0,100,0.04,,,0.06,VWS V14.01,2013-02-27 16:11:00,
2013-02-27 11:16:00,32.5,32.5,29.40,WSW,241,9.0,19.0,100,0.05,,,0.07,VWS V14.01,2013-02-27 16:16:00,
2013-02-27 11:25:00,32.7,32.7,29.40,SSW,203,7.0,16.0,100,0.05,,,0.08,VWS V14.01,2013-02-27 16:25:00,
2013-02-27 11:31:00,32.7,32.7,29.40,SSW,212,9.0,17.0,100,0.05,,,0.08,VWS V14.01,2013-02-27 16:31:00,
2013-02-27 11:36:00,32.7,32.7,29.40,SSW,213,13.0,17.0,100,0.04,,,0.08,VWS V14.01,2013-02-27 16:36:00,
2013-02-27 11:41:00,32.7,32.7,29.40,SSW,210,14.0,17.0,100,0.05,,,0.09,VWS V14.01,2013-02-27 16:41:00,
2013-02-27 11:46:00,32.7,32.7,29.40,SSW,210,11.0,14.0,100,0.05,,,0.09,VWS V14.01,2013-02-27 16:46:00,
2013-02-27 11:51:00,32.7,32.7,29.40,SW,215,20.0,20.0,100,0.05,,,0.10,VWS V14.01,2013-02-27 16:51:00,
2013-02-27 12:01:00,32.8,32.8,29.40,SW,220,9.0,18.0,100,0.05,,,0.10,VWS V14.01,2013-02-27 17:01:00,
2013-02-27 12:11:00,32.7,32.7,29.40,SSW,203,17.0,17.0,100,0.04,,,0.10,VWS V14.01,2013-02-27 17:11:00,
2013-02-27 12:16:00,32.7,32.7,29.40,SSW,209,11.0,18.0,100,0.05,,,0.11,VWS V14.01,2013-02-27 17:16:00,
2013-02-27 12:21:00,32.8,32.8,29.40,SSW,193,11.0,16.0,100,0.04,,,0.11,VWS V14.01,2013-02-27 17:21:00,
2013-02-27 12:26:00,32.8,32.8,29.40,SW,215,11.0,14.0,100,0.04,,,0.11,VWS V14.01,2013-02-27 17:26:00,
2013-02-27 12:31:00,32.7,32.7,29.40,SW,224,11.0,18.0,100,0.03,,,0.11,VWS V14.01,2013-02-27 17:31:00,
2013-02-27 12:36:00,32.7,32.7,29.40,SW,227,11.0,18.0,100,0.03,,,0.11,VWS V14.01,2013-02-27 17:36:00,
2013-02-27 12:41:00,32.7,32.7,29.40,SW,222,11.0,19.0,100,0.04,,,0.12,VWS V14.01,2013-02-27 17:41:00,
2013-02-27 12:46:00,32.7,32.7,29.40,SW,224,10.0,14.0,100,0.03,,,0.12,VWS V14.01,2013-02-27 17:46:00,
2013-02-27 12:51:00,32.8,32.8,29.40,South,172,6.0,17.0,100,0.03,,,0.12,VWS V14.01,2013-02-27 17:51:00,
2013-02-27 12:56:00,32.7,32.7,29.40,SW,219,14.0,17.0,100,0.02,,,0.12,VWS V14.01,2013-02-27 17:56:00,
2013-02-27 13:01:00,32.7,32.7,29.40,SW,227,10.0,19.0,100,0.02,,,0.12,VWS V14.01,2013-02-27 18:01:00,
2013-02-27 13:10:00,32.7,32.7,29.40,SW,224,11.0,19.0,100,0.02,,,0.12,VWS V14.01,2013-02-27 18:10:00,
2013-02-27 13:15:00,32.7,32.7,29.40,SW,223,10.0,16.0,100,0.02,,,0.12,VWS V14.01,2013-02-27 18:15:00,
2013-02-27 13:20:00,32.7,32.7,29.40,WSW,246,10.0,17.0,100,0.01,,,0.12,VWS V14.01,2013-02-27 18:20:00,
2013-02-27 13:25:00,32.7,32.7,29.40,SW,217,13.0,19.0,100,0.01,,,0.12,VWS V14.01,2013-02-27 18:25:00,
2013-02-27 13:30:00,32.7,32.7,29.40,SW,224,8.0,18.0,100,0.01,,,0.12,VWS V14.01,2013-02-27 18:30:00,
2013-02-27 13:35:00,32.7,32.7,29.40,SW,224,8.0,18.0,100,0.02,,,0.13,VWS V14.01,2013-02-27 18:35:00,
2013-02-27 13:40:00,32.7,32.7,29.40,SW,229,13.0,17.0,100,0.02,,,0.13,VWS V14.01,2013-02-27 18:40:00,
2013-02-27 13:45:00,32.7,32.7,29.40,SW,232,10.0,14.0,100,0.01,,,0.13,VWS V14.01,2013-02-27 18:45:00,
2013-02-27 13:51:00,32.7,32.7,29.40,SW,217,11.0,13.0,100,0.01,,,0.13,VWS V14.01,2013-02-27 18:51:00,
2013-02-27 13:56:00,32.7,32.7,29.40,SW,229,6.0,13.0,100,0.01,,,0.13,VWS V14.01,2013-02-27 18:56:00,
2013-02-27 14:06:00,32.9,32.9,29.40,SW,236,8.0,12.0,100,0.01,,,0.13,VWS V14.01,2013-02-27 19:06:00,
2013-02-27 14:15:00,32.8,32.8,29.40,SW,224,13.0,16.0,100,0.01,,,0.13,VWS V14.01,2013-02-27 19:15:00,
2013-02-27 14:20:00,32.9,32.9,29.40,SW,227,5.0,13.0,100,0.01,,,0.13,VWS V14.01,2013-02-27 19:20:00,
2013-02-27 14:26:00,32.8,32.8,29.40,SW,215,8.0,17.0,100,0.01,,,0.13,VWS V14.01,2013-02-27 19:26:00,
2013-02-27 14:31:00,32.7,32.7,29.40,SW,226,14.0,15.0,100,0.01,,,0.13,VWS V14.01,2013-02-27 19:31:00,
2013-02-27 14:36:00,32.7,32.7,29.40,SW,230,12.0,15.0,100,0.01,,,0.13,VWS V14.01,2013-02-27 19:36:00,
2013-02-27 14:41:00,32.7,32.7,29.40,SW,220,12.0,15.0,100,0.00,,,0.13,VWS V14.01,2013-02-27 19:41:00,
2013-02-27 14:51:00,32.7,32.7,29.40,SSW,195,9.0,11.0,100,0.00,,,0.13,VWS V14.01,2013-02-27 19:51:00,
2013-02-27 14:56:00,32.5,32.5,29.40,SW,229,10.0,16.0,100,0.00,,,0.13,VWS V14.01,2013-02-27 19:56:00,
2013-02-27 15:06:00,32.5,32.5,29.41,SW,216,8.0,14.0,100,0.00,,,0.13,VWS V14.01,2013-02-27 20:06:00,
2013-02-27 15:11:00,32.5,32.5,29.41,SW,217,11.0,13.0,100,0.00,,,0.13,VWS V14.01,2013-02-27 20:11:00,
2013-02-27 15:16:00,32.5,32.5,29.42,SW,232,7.0,16.0,100,0.00,,,0.13,VWS V14.01,2013-02-27 20:16:00,
2013-02-27 15:21:00,32.5,32.5,29.42,SW,222,5.0,12.0,100,0.00,,,0.13,VWS V14.01,2013-02-27 20:21:00,
2013-02-27 15:26:00,32.4,32.4,29.42,SW,230,11.0,16.0,100,0.01,,,0.14,VWS V14.01,2013-02-27 20:26:00,
2013-02-27 15:31:00,32.4,32.4,29.42,SSW,206,12.0,17.0,100,0.01,,,0.14,VWS V14.01,2013-02-27 20:31:00,
2013-02-27 15:36:00,32.4,32.4,29.42,SW,226,5.0,16.0,100,0.01,,,0.14,VWS V14.01,2013-02-27 20:36:00,
2013-02-27 15:41:00,32.4,32.4,29.42,SW,234,16.0,16.0,100,0.01,,,0.14,VWS V14.01,2013-02-27 20:41:00,
2013-02-27 15:46:00,32.4,32.4,29.42,SSW,213,7.0,16.0,100,0.01,,,0.14,VWS V14.01,2013-02-27 20:46:00,
2013-02-27 15:51:00,32.2,32.2,29.42,SSW,213,13.0,18.0,100,0.01,,,0.14,VWS V14.01,2013-02-27 20:51:00,
2013-02-27 15:56:00,32.2,32.2,29.42,SW,217,10.0,15.0,100,0.01,,,0.14,VWS V14.01,2013-02-27 20:56:00,
2013-02-27 16:01:00,32.1,32.1,29.42,SW,236,16.0,17.0,100,0.01,,,0.14,VWS V14.01,2013-02-27 21:01:00,
2013-02-27 16:11:00,32.1,32.1,29.42,SW,233,9.0,16.0,100,0.01,,,0.14,VWS V14.01,2013-02-27 21:11:00,
2013-02-27 16:16:00,32.1,32.1,29.42,WSW,239,7.0,18.0,100,0.01,,,0.14,VWS V14.01,2013-02-27 21:16:00,
2013-02-27 16:21:00,32.1,32.1,29.42,SSW,208,11.0,13.0,100,0.01,,,0.14,VWS V14.01,2013-02-27 21:21:00,
2013-02-27 16:26:00,32.1,32.1,29.42,SSE,158,7.0,16.0,100,0.01,,,0.14,VWS V14.01,2013-02-27 21:26:00,
2013-02-27 16:31:00,31.9,31.9,29.43,SW,219,16.0,20.0,100,0.00,,,0.14,VWS V14.01,2013-02-27 21:31:00,
2013-02-27 16:36:00,31.8,31.8,29.43,WSW,251,19.0,20.0,100,0.00,,,0.14,VWS V14.01,2013-02-27 21:36:00,
2013-02-27 16:41:00,31.9,31.9,29.43,SSW,200,11.0,19.0,100,0.00,,,0.14,VWS V14.01,2013-02-27 21:41:00,
2013-02-27 16:46:00,31.9,31.9,29.43,SSW,198,9.0,19.0,100,0.00,,,0.14,VWS V14.01,2013-02-27 21:46:00,
2013-02-27 16:51:00,31.9,31.9,29.43,SW,236,7.0,18.0,100,0.00,,,0.14,VWS V14.01,2013-02-27 21:51:00,
2013-02-27 16:56:00,31.8,31.8,29.43,WSW,237,15.0,18.0,100,0.00,,,0.14,VWS V14.01,2013-02-27 21:56:00,
2013-02-27 17:01:00,31.8,31.8,29.43,SW,223,11.0,18.0,100,0.00,,,0.14,VWS V14.01,2013-02-27 22:01:00,
2013-02-27 17:11:00,31.5,31.5,29.43,SW,222,11.0,16.0,100,0.00,,,0.14,VWS V14.01,2013-02-27 22:11:00,
2013-02-27 17:16:00,31.5,31.5,29.43,WSW,248,7.0,17.0,100,0.00,,,0.14,VWS V14.01,2013-02-27 22:16:00,
2013-02-27 17:21:00,31.5,31.5,29.43,SW,224,14.0,19.0,100,0.00,,,0.14,VWS V14.01,2013-02-27 22:21:00,
2013-02-27 17:26:00,31.5,31.5,29.43,SW,224,12.0,17.0,100,0.00,,,0.14,VWS V14.01,2013-02-27 22:26:00,
2013-02-27 17:31:00,31.5,31.5,29.43,WSW,248,16.0,16.0,100,0.00,,,0.14,VWS V14.01,2013-02-27 22:31:00,
2013-02-27 17:36:00,31.3,31.3,29.43,WNW,289,15.0,19.0,100,0.00,,,0.14,VWS V14.01,2013-02-27 22:36:00,
2013-02-27 17:41:00,31.5,31.5,29.43,SW,215,12.0,19.0,100,0.00,,,0.14,VWS V14.01,2013-02-27 22:41:00,
2013-02-27 17:46:00,31.3,31.3,29.44,SSW,213,11.0,13.0,100,0.00,,,0.14,VWS V14.01,2013-02-27 22:46:00,
2013-02-27 17:51:00,31.3,31.3,29.44,WSW,244,11.0,12.0,100,0.00,,,0.14,VWS V14.01,2013-02-27 22:51:00,
2013-02-27 17:56:00,31.2,31.2,29.44,WSW,243,9.0,16.0,100,0.00,,,0.14,VWS V14.01,2013-02-27 22:56:00,
2013-02-27 18:01:00,31.2,31.2,29.44,SW,236,9.0,16.0,100,0.00,,,0.14,VWS V14.01,2013-02-27 23:01:00,
2013-02-27 18:11:00,31.0,31.0,29.44,WSW,247,8.0,17.0,100,0.00,,,0.14,VWS V14.01,2013-02-27 23:11:00,
2013-02-27 18:16:00,31.0,31.0,29.45,WSW,247,12.0,16.0,100,0.00,,,0.14,VWS V14.01,2013-02-27 23:16:00,
2013-02-27 18:21:00,31.0,31.0,29.45,WSW,247,8.0,17.0,100,0.00,,,0.14,VWS V14.01,2013-02-27 23:21:00,
2013-02-27 18:26:00,31.0,31.0,29.45,WSW,247,7.0,17.0,100,0.00,,,0.14,VWS V14.01,2013-02-27 23:26:00,
2013-02-27 18:31:00,31.0,31.0,29.45,WSW,247,6.0,15.0,100,0.00,,,0.14,VWS V14.01,2013-02-27 23:31:00,
2013-02-27 18:41:00,30.9,30.9,29.45,WSW,247,9.0,12.0,100,0.00,,,0.14,VWS V14.01,2013-02-27 23:41:00,
2013-02-27 18:46:00,30.9,30.9,29.46,WSW,247,8.0,12.0,100,0.00,,,0.14,VWS V14.01,2013-02-27 23:46:00,
2013-02-27 18:51:00,30.9,30.9,29.46,WSW,247,6.0,14.0,100,0.00,,,0.14,VWS V14.01,2013-02-27 23:51:00,
2013-02-27 18:56:00,30.7,30.7,29.46,WSW,247,8.0,17.0,100,0.00,,,0.14,VWS V14.01,2013-02-27 23:56:00,
2013-02-27 19:06:00,30.7,30.7,29.46,WSW,247,13.0,18.0,100,0.00,,,0.14,VWS V14.01,2013-02-28 00:06:00,
2013-02-27 19:11:00,30.6,30.6,29.46,WSW,247,7.0,16.0,100,0.00,,,0.14,VWS V14.01,2013-02-28 00:11:00,
2013-02-27 19:16:00,30.6,30.6,29.46,WSW,247,11.0,18.0,100,0.00,,,0.14,VWS V14.01,2013-02-28 00:16:00,
2013-02-27 19:21:00,30.6,30.6,29.46,WSW,247,11.0,13.0,100,0.00,,,0.14,VWS V14.01,2013-02-28 00:21:00,
2013-02-27 19:26:00,30.6,30.6,29.46,WSW,247,6.0,16.0,100,0.00,,,0.14,VWS V14.01,2013-02-28 00:26:00,
2013-02-27 19:31:00,30.6,30.6,29.47,WSW,247,7.0,13.0,100,0.00,,,0.14,VWS V14.01,2013-02-28 00:31:00,
2013-02-27 19:41:00,30.6,30.6,29.47,WSW,247,5.0,16.0,100,0.00,,,0.14,VWS V14.01,2013-02-28 00:41:00,
2013-02-27 19:46:00,30.6,30.6,29.47,WSW,247,10.0,18.0,100,0.00,,,0.14,VWS V14.01,2013-02-28 00:46:00,
2013-02-27 19:51:00,30.6,30.6,29.47,WSW,247,9.0,13.0,100,0.00,,,0.14,VWS V14.01,2013-02-28 00:51:00,
2013-02-27 20:01:00,30.6,30.6,29.47,WSW,247,10.0,20.0,100,0.00,,,0.14,VWS V14.01,2013-02-28 01:01:00,
2013-02-27 20:11:00,30.6,30.6,29.47,WSW,247,11.0,18.0,100,0.00,,,0.14,VWS V14.01,2013-02-28 01:11:00,
2013-02-27 20:16:00,30.6,30.6,29.46,WSW,247,11.0,13.0,100,0.00,,,0.14,VWS V14.01,2013-02-28 01:16:00,
2013-02-27 20:21:00,30.7,30.7,29.46,WSW,247,12.0,13.0,100,0.00,,,0.14,VWS V14.01,2013-02-28 01:21:00,
2013-02-27 20:26:00,30.7,30.7,29.46,WSW,247,11.0,12.0,100,0.00,,,0.14,VWS V14.01,2013-02-28 01:26:00,
2013-02-27 20:31:00,30.6,30.6,29.47,WSW,247,6.0,13.0,100,0.00,,,0.14,VWS V14.01,2013-02-28 01:31:00,
2013-02-27 20:36:00,30.6,30.6,29.47,WSW,247,8.0,17.0,100,0.00,,,0.14,VWS V14.01,2013-02-28 01:36:00,
2013-02-27 20:41:00,30.6,30.6,29.47,WSW,247,12.0,16.0,100,0.00,,,0.14,VWS V14.01,2013-02-28 01:41:00,
2013-02-27 20:46:00,30.6,30.6,29.46,WSW,247,11.0,14.0,100,0.00,,,0.14,VWS V14.01,2013-02-28 01:46:00,
2013-02-27 20:51:00,30.6,30.6,29.46,WSW,247,11.0,17.0,100,0.00,,,0.14,VWS V14.01,2013-02-28 01:51:00,
2013-02-27 20:56:00,30.6,30.6,29.46,WSW,247,11.0,19.0,100,0.00,,,0.14,VWS V14.01,2013-02-28 01:56:00,
2013-02-27 21:01:00,30.6,30.6,29.47,WSW,247,9.0,13.0,100,0.00,,,0.14,VWS V14.01,2013-02-28 02:01:00,
2013-02-27 21:10:00,30.7,30.7,29.47,WSW,247,12.0,12.0,100,0.00,,,0.14,VWS V14.01,2013-02-28 02:10:00,
2013-02-27 21:16:00,30.7,30.7,29.47,WSW,247,8.0,16.0,100,0.00,,,0.14,VWS V14.01,2013-02-28 02:16:00,
2013-02-27 21:26:00,30.7,30.7,29.47,WSW,247,6.0,14.0,100,0.00,,,0.14,VWS V14.01,2013-02-28 02:26:00,
2013-02-27 21:31:00,30.7,30.7,29.47,WSW,247,11.0,12.0,100,0.00,,,0.14,VWS V14.01,2013-02-28 02:31:00,
2013-02-27 21:36:00,30.7,30.7,29.47,WSW,247,7.0,13.0,100,0.00,,,0.14,VWS V14.01,2013-02-28 02:36:00,
2013-02-27 21:41:00,30.7,30.7,29.47,WSW,247,10.0,14.0,100,0.00,,,0.14,VWS V14.01,2013-02-28 02:41:00,
2013-02-27 21:51:00,30.9,30.9,29.47,WSW,247,9.0,13.0,100,0.00,,,0.14,VWS V14.01,2013-02-28 02:51:00,
2013-02-27 21:56:00,30.9,30.9,29.47,WSW,247,11.0,12.0,100,0.00,,,0.14,VWS V14.01,2013-02-28 02:56:00,
2013-02-27 22:01:00,30.9,30.9,29.47,WSW,247,5.0,16.0,100,0.00,,,0.14,VWS V14.01,2013-02-28 03:01:00,
2013-02-27 22:06:00,30.9,30.9,29.47,WSW,247,11.0,11.0,100,0.00,,,0.14,VWS V14.01,2013-02-28 03:06:00,
2013-02-27 22:11:00,30.9,30.9,29.47,WSW,247,11.0,14.0,100,0.00,,,0.14,VWS V14.01,2013-02-28 03:11:00,
2013-02-27 22:16:00,30.9,30.9,29.46,WSW,247,11.0,13.0,100,0.00,,,0.14,VWS V14.01,2013-02-28 03:16:00,
2013-02-27 22:21:00,30.9,30.9,29.46,WSW,247,10.0,13.0,100,0.00,,,0.14,VWS V14.01,2013-02-28 03:21:00,
2013-02-27 22:31:00,31.0,31.0,29.46,WSW,247,14.0,14.0,100,0.00,,,0.14,VWS V14.01,2013-02-28 03:31:00,
2013-02-27 22:41:00,31.0,31.0,29.46,WSW,247,7.0,17.0,100,0.00,,,0.14,VWS V14.01,2013-02-28 03:41:00,
2013-02-27 22:46:00,31.0,31.0,29.46,WSW,247,6.0,12.0,100,0.00,,,0.14,VWS V14.01,2013-02-28 03:46:00,
2013-02-27 22:50:00,31.2,31.2,29.46,WSW,247,7.0,13.0,100,0.00,,,0.14,VWS V14.01,2013-02-28 03:50:00,
2013-02-27 22:56:00,31.2,31.2,29.46,WSW,247,7.0,14.0,100,0.00,,,0.14,VWS V14.01,2013-02-28 03:56:00,
2013-02-27 23:01:00,31.2,31.2,29.46,WSW,247,9.0,17.0,100,0.00,,,0.14,VWS V14.01,2013-02-28 04:01:00,
2013-02-27 23:11:00,31.2,31.2,29.46,WSW,247,13.0,13.0,100,0.00,,,0.14,VWS V14.01,2013-02-28 04:11:00,
2013-02-27 23:16:00,31.3,31.3,29.46,WSW,247,12.0,13.0,100,0.00,,,0.14,VWS V14.01,2013-02-28 04:16:00,
2013-02-27 23:21:00,31.3,31.3,29.46,WSW,247,5.0,14.0,100,0.00,,,0.14,VWS V14.01,2013-02-28 04:21:00,
2013-02-27 23:26:00,31.3,31.3,29.46,WSW,247,6.0,14.0,100,0.00,,,0.14,VWS V14.01,2013-02-28 04:26:00,
2013-02-27 23:36:00,31.3,31.3,29.46,WSW,247,11.0,13.0,100,0.00,,,0.14,VWS V14.01,2013-02-28 04:36:00,
2013-02-27 23:41:00,31.3,31.3,29.46,WSW,247,10.0,13.0,100,0.00,,,0.14,VWS V14.01,2013-02-28 04:41:00,
2013-02-27 23:46:00,31.5,31.5,29.46,WSW,247,7.0,10.0,100,0.00,,,0.14,VWS V14.01,2013-02-28 04:46:00,
2013-02-27 23:56:00,31.5,31.5,29.46,WSW,247,6.0,10.0,100,0.00,,,0.14,VWS V14.01,2013-02-28 04:56:00,